Regional Weather Roundup
Issued by NWS Grand Forks, ND

Home | Current Version | Previous Version | Graphics & Text | Print | Product List | Glossary On
Versions: 1 2 3 4 5 6 7 8 9 10 11 12 13 14 15 16 17 18 19 20 21 22 23 24 25 26 27 28 29 30 31 32 33 34 35 36 37 38 39 40 41 42 43 44 45 46 47 48 49 50
000
ASUS43 KFGF 281810
RWRFGF
PRAIRIE TO PINES  WEATHER ROUNDUP
NATIONAL WEATHER SERVICE EASTERN NORTH DAKOTA/GRAND FORKS ND
100 PM CDT THU AUG 28 2014

 **SATELLITE DATA USED TO AUGMENT SKY COVER AT AUTOMATED STATIONS**
 *****  WEATHER ACROSS EASTERN NORTH DAKOTA  *****

CITY           SKY/WX    TMP DP  RH WIND       PRES   REMARKS
GRAND FORKS    CLOUDY    75  65  70 S15       29.92F
6HR MIN TEMP:  62; 6HR MAX TEMP:  75; 6HR PCP: TRACE;

GRAND FRKS AFB PTSUNNY   75  70  83 S10       29.93F
GRAND FRKS NWS   N/A     73 N/A N/A SE13        N/A
DEVILS LAKE    CLOUDY    72  63  73 SW7       29.90F
6HR MIN TEMP:  61; 6HR MAX TEMP:  72;

FARGO          CLOUDY    70  61  73 SE14      29.95F
WAHPETON ARPT  CLOUDY    68  61  77 S15       29.96F
$$

 ***** WEATHER ACROSS CENTRAL AND WESTERN NORTH DAKOTA  *****

CITY           SKY/WX    TMP DP  RH WIND       PRES   REMARKS
BISMARCK       CLOUDY    71  66  84 S6        29.93S
6HR MIN TEMP:  61; 6HR MAX TEMP:  72;

MINOT          MOSUNNY   80  57  45 S10       29.86F
6HR MIN TEMP:  62; 6HR MAX TEMP:  82;

JAMESTOWN      LGT RAIN  70  67  90 S8        29.93F
6HR MIN TEMP:  63; 6HR MAX TEMP:  70; 6HR PCP:  0.01;

MINOT AFB      SUNNY     82  58  43 SW9       29.85F
GARRISON         N/A     74  64  71 S8        29.90F
WILLISTON      MOSUNNY   83  59  44 S8        29.87F
6HR MIN TEMP:  55; 6HR MAX TEMP:  84;

DICKINSON      SUNNY     81  54  39 SW12      29.91F
6HR MIN TEMP:  53; 6HR MAX TEMP:  81;

HETTINGER      MOSUNNY   76  58  53 S5        29.95F
6HR MIN TEMP:  55; 6HR MAX TEMP:  76;

$$

 *****  OTHER AIRPORT OBSERVATIONS IN OUR AREA  *****

CITY           SKY/WX    TMP DP  RH WIND       PRES   REMARKS
WALHALLA       FAIR      77  72  83 S14       29.88F
GRAFTON AIRPOR FAIR      75  66  73 S10G16    29.91F
VALLEY CITY AR CLOUDY    70  70 100 S9        29.94F
CANDO          FAIR      75  66  73 S14       29.90F
CAVALIER APRT  MOCLDY    72  66  83 S10       29.90F
GWINNER        CLOUDY    70  68  94 SE9       29.96F
SHEYENNE NWR     N/A     67  64  90 SE7       29.95S
ROLLA            N/A     73  64  73 S15G22    29.90S
 ***** THE ABOVE OBSERVATIONS ARE NON NWS ARE NOT QUALITY
       CONTROLLED AND MAY MIS-REPORT RAIN FOR SNOW...
$$

  *****  WEATHER ACROSS NORTHERN MINNESOTA  *****

CITY           SKY/WX    TMP DP  RH WIND       PRES   REMARKS
FLAG ISLAND    MOSUNNY   70  63  78 S15       29.96S
WARROAD        RAIN      70  64  83 S6G16     29.98S
ROSEAU         PTSUNNY   70  63  78 S13       29.96F
HALLOCK        PTSUNNY   73  66  78 S12       29.91F
THF RVR FALLS  PTSUNNY   72  64  78 S12       29.96F
6HR MIN TEMP:  59; 6HR MAX TEMP:  72; 6HR PCP:  0.02;

BAUDETTE       CLOUDY    72  59  63 S14G21    29.98F
6HR MIN TEMP:  50; 6HR MAX TEMP:  72;

WASKISH        CLOUDY    70  61  73 SE5       30.01F
CROOKSTON      PTSUNNY   73  64  73 S9        29.95F
$$
  *****  WEATHER ACROSS CENTRAL AND WEST MINNESOTA  *****

CITY           SKY/WX    TMP DP  RH WIND       PRES   REMARKS
FOSSTON        PTSUNNY   70  61  73 S14       29.99F
BEMIDJI        PTSUNNY   67  60  76 S12       30.02F
PARK RAPIDS    CLOUDY    70  59  68 S16       30.02F
6HR MIN TEMP:  57; 6HR MAX TEMP:  71;

ELBOW LAKE     DRIZZLE   67  62  84 SE13      29.98F
WADENA         CLOUDY    70  61  73 S9        30.01F
DETROIT LAKES  CLOUDY    70  61  73 S12       30.00F
MOORHEAD       CLOUDY    70  64  83 S10       29.97F
FERGUS FALLS   CLOUDY    70  59  68 SE12      29.97F
MORRIS MN      CLOUDY    66  64  94 SE9       29.97F
STAPLES        CLOUDY    72  59  64 SE9       30.02F
$$
  *****  WEATHER ELSEWHERE ACROSS MINNESOTA  *****

CITY           SKY/WX    TMP DP  RH WIND       PRES   REMARKS
DULUTH         MOSUNNY   71  55  56 VRB5      30.08F
6HR MIN TEMP:  53; 6HR MAX TEMP:  71;

INTRNTL FALLS  CLOUDY    72  58  61 S5G20     30.02F
6HR MIN TEMP:  46; 6HR MAX TEMP:  73;

ELY            PTSUNNY   70  54  56 S5        30.07F
CLOQUET        MOSUNNY   70  54  56 E6        30.07F
WHEATON        LGT RAIN  64  63  94 SE8       29.98F
BRAINERD       CLOUDY    70  59  68 S13       30.03F
6HR MIN TEMP:  59; 6HR MAX TEMP:  70;

HIBBING        PTSUNNY   73  55  53 S9        30.06F
6HR MIN TEMP:  48; 6HR MAX TEMP:  73;

ALEXANDRIA     CLOUDY    69  62  78 SE13      30.02F
6HR MIN TEMP:  61; 6HR MAX TEMP:  71;

SAINT CLOUD    CLOUDY    75  60  59 SE14      30.02F
6HR MIN TEMP:  59; 6HR MAX TEMP:  75;

MINNEAPOLIS    CLOUDY    72  61  68 SE10      30.03F
6HR MIN TEMP:  62; 6HR MAX TEMP:  72;

$$

  *****  WEATHER ACROSS SOUTH DAKOTA  *****

CITY           SKY/WX    TMP DP  RH WIND       PRES   REMARKS
SIOUX FALLS    CLOUDY    71  67  87 SE8       29.92F
6HR MIN TEMP:  67; 6HR MAX TEMP:  71; 6HR PCP:  0.29;

BROOKINGS      NOT AVBL
WATERTOWN      LGT RAIN  65  64  97 SE6       29.95F
6HR MIN TEMP:  65; 6HR MAX TEMP:  66; 6HR PCP:  0.12;

HURON          CLOUDY    70  67  90 SE9       29.89F
6HR MIN TEMP:  67; 6HR MAX TEMP:  70; 6HR PCP:  0.43;

SISSETON         N/A     66  65  96 SE6       29.95F
ABERDEEN       CLOUDY    69  67  93 E9        29.92F
6HR MIN TEMP:  65; 6HR MAX TEMP:  69; 6HR PCP: TRACE;

MITCHELL       CLOUDY    71  68  90 MISG      29.89F
PIERRE         CLOUDY    70  68  93 N5        29.89F
6HR MIN TEMP:  66; 6HR MAX TEMP:  70; 6HR PCP:  0.28;

MOBRIDGE       LGT RAIN  68  67  96 CALM      29.91F
RAPID CITY     CLOUDY    73  59  61 N5        30.00F
6HR MIN TEMP:  61; 6HR MAX TEMP:  73;

$$

  *****  SOME WEATHER IN NEARBY STATES *****

CITY           SKY/WX    TMP DP  RH WIND       PRES   REMARKS
GLASGOW MT     SUNNY     82  55  39 NW8       29.88F
6HR MIN TEMP:  56; 6HR MAX TEMP:  82;

GREAT FALLS MT MOSUNNY   82  44  26 SW17      29.99F
6HR MIN TEMP:  55; 6HR MAX TEMP:  82;

CHEYENNE WY    CLOUDY    58  49  72 NW17G24   30.20R
6HR MIN TEMP:  51; 6HR MAX TEMP:  61;

SCOTTSBLUFF NE LGT RAIN  61  61 100 NW13      30.07F
6HR MIN TEMP:  58; 6HR MAX TEMP:  64; 6HR PCP:  0.07;

OMAHA NE       CLOUDY    78  68  71 S13       29.91F
6HR MIN TEMP:  70; 6HR MAX TEMP:  79; 6HR PCP:  0.33;

DES MOINES IA  CLOUDY    72  69  90 SE6       29.96F
6HR MIN TEMP:  67; 6HR MAX TEMP:  72; 6HR PCP:  0.95;

DAVENPORT IA   LGT RAIN  69  63  81 SE12      30.07F
6HR MIN TEMP:  65; 6HR MAX TEMP:  72; 6HR PCP:  0.14;

CHICAGO IL     MOSUNNY   76  52  43 NE7       30.11F
6HR MIN TEMP:  67; 6HR MAX TEMP:  77;

EAU CLAIRE WI  CLOUDY    72  60  66 E9        30.07F
6HR MIN TEMP:  55; 6HR MAX TEMP:  72;

LA CROSSE WI   LGT RAIN  73  62  68 S9        30.07F
6HR MIN TEMP:  60; 6HR MAX TEMP:  74; 6HR PCP: TRACE;

$$

  *****  SOME NATIONAL WEATHER *****

CITY           SKY/WX    TMP DP  RH WIND       PRES   REMARKS
LA GUARDIA NY  MOSUNNY   79  54  41 NW13      29.87F
6HR MIN TEMP:  70; 6HR MAX TEMP:  80;

RALEIGH NC     MOSUNNY   88  70  55 CALM      29.99F HX  93
6HR MIN TEMP:  69; 6HR MAX TEMP:  89;

ATLANTA GA     MOSUNNY   88  60  38 S3        30.05F
6HR MIN TEMP:  70; 6HR MAX TEMP:  88;

NEW ORLEANS LA CLOUDY    89  70  53 S7        29.99F HX  94
6HR MIN TEMP:  80; 6HR MAX TEMP:  90;

OKLAHOMA CITY  MOSUNNY   92  63  38 S12       29.95F HX  93
6HR MIN TEMP:  68; 6HR MAX TEMP:  92;

ALBUQUERQUE NM MOSUNNY   75  43  31 N8        30.22F
6HR MIN TEMP:  59; 6HR MAX TEMP:  76;

SALT LAKE CITY MOSUNNY   76  49  38 SW9       30.21F
6HR MIN TEMP:  59; 6HR MAX TEMP:  77;

LOS ANGELES CA SUNNY     82  54  37 W8        29.99F
6HR MIN TEMP:  69; 6HR MAX TEMP:  82;

BOISE ID       SUNNY     82  41  23 CALM      30.08F



USA.gov is the U.S. government's official web portal to all federal, state and local government web resources and services.